TimeEST,TemperatureF,Dew PointF,Humidity,Sea Level PressureIn,VisibilityMPH,Wind Direction,Wind SpeedMPH,Gust SpeedMPH,PrecipitationIn,Events,Conditions,WindDirDegrees,DateUTC
12:53 AM,50.0,37.0,61,30.41,10.0,South,5.8,-,N/A,,Clear,180,2013-11-05 05:53:00
1:53 AM,48.0,37.0,66,30.41,10.0,Calm,Calm,-,N/A,,Clear,0,2013-11-05 06:53:00
2:53 AM,48.0,37.9,68,30.41,10.0,Calm,Calm,-,N/A,,Clear,0,2013-11-05 07:53:00
3:53 AM,46.9,37.9,71,30.41,10.0,Calm,Calm,-,N/A,,Clear,0,2013-11-05 08:53:00
4:53 AM,46.9,37.9,71,30.42,10.0,Calm,Calm,-,N/A,,Clear,0,2013-11-05 09:53:00
5:53 AM,46.0,39.9,79,30.43,10.0,Calm,Calm,-,N/A,,Mostly Cloudy,0,2013-11-05 10:53:00
6:53 AM,45.0,39.0,80,30.43,10.0,Calm,Calm,-,N/A,,Mostly Cloudy,0,2013-11-05 11:53:00
7:53 AM,46.0,39.9,79,30.45,10.0,Calm,Calm,-,N/A,,Mostly Cloudy,0,2013-11-05 12:53:00
8:53 AM,51.1,36.0,56,30.45,10.0,SSE,4.6,-,N/A,,Mostly Cloudy,150,2013-11-05 13:53:00
9:53 AM,53.1,35.1,50,30.46,10.0,SSE,5.8,-,N/A,,Mostly Cloudy,150,2013-11-05 14:53:00
10:53 AM,55.0,35.1,47,30.45,10.0,SE,3.5,-,N/A,,Mostly Cloudy,140,2013-11-05 15:53:00
11:53 AM,57.0,35.1,44,30.45,10.0,Calm,Calm,-,N/A,,Mostly Cloudy,0,2013-11-05 16:53:00
12:53 PM,61.0,35.1,38,30.41,10.0,Calm,Calm,-,N/A,,Mostly Cloudy,0,2013-11-05 17:53:00
1:53 PM,63.0,36.0,37,30.38,10.0,ESE,5.8,-,N/A,,Mostly Cloudy,120,2013-11-05 18:53:00
2:53 PM,64.0,37.9,38,30.35,10.0,Variable,4.6,-,N/A,,Mostly Cloudy,0,2013-11-05 19:53:00
3:53 PM,64.9,37.9,37,30.33,10.0,East,3.5,-,N/A,,Mostly Cloudy,100,2013-11-05 20:53:00
4:53 PM,64.9,39.0,39,30.31,10.0,Calm,Calm,-,N/A,,Mostly Cloudy,0,2013-11-05 21:53:00
5:53 PM,64.0,39.9,41,30.32,10.0,Calm,Calm,-,N/A,,Mostly Cloudy,0,2013-11-05 22:53:00
6:53 PM,63.0,42.1,46,30.33,10.0,Calm,Calm,-,N/A,,Mostly Cloudy,0,2013-11-05 23:53:00
7:53 PM,57.0,46.0,67,30.32,10.0,Calm,Calm,-,N/A,,Mostly Cloudy,0,2013-11-06 00:53:00
8:53 PM,55.9,45.0,67,30.33,10.0,Calm,Calm,-,N/A,,Scattered Clouds,0,2013-11-06 01:53:00
9:53 PM,52.0,45.0,77,30.33,10.0,Calm,Calm,-,N/A,,Scattered Clouds,0,2013-11-06 02:53:00
10:53 PM,50.0,44.1,80,30.33,10.0,Calm,Calm,-,N/A,,Mostly Cloudy,0,2013-11-06 03:53:00
11:53 PM,50.0,45.0,83,30.32,10.0,Calm,Calm,-,N/A,,Mostly Cloudy,0,2013-11-06 04:53:00